User: anonymous   Login
Location: Nairn
(57.5833°N, 3.8667°W)
Time: 19:19:58
(UTC+00:00)
Language:

Cosmos 1655 Rocket - Orbit

View from above orbital plane
View from above orbital plane
View from above satellite
View from above satellite

Ground track
Ground track

The orbit data is extracted from the following two-line orbital elements,

1 15752U 85041B   20295.13805885 -.00000078 +00000-0 -10053-3 0  9993
2 15752 082.9461 125.1840 0023676 334.6947 025.3046 13.73116276773300
Epoch (UTC): 21 October 2020 03:18:48
Eccentricity: 0.0023676
inclination: 82.9461°
perigee height: 971 km
apogee height: 1006 km
right ascension of ascending node: 125.1840°
argument of perigee: 334.6947°
revolutions per day: 13.73116276
mean anomaly at epoch: 25.3046°
orbit number at epoch: 77330

The dashed part of the orbit path shows where the satellite is in the earth's shadow,  

DLR